[[{"header":{"parameterUnit":"m.s-1","parameterCategory":2,"la1":30.2991,"la2":30.254,"lo1":-89.0895,"lo2":-89.0444,"dy":0.0017,"dx":0.0017,"nx":28,"ny":28,"refTime":"2026-01-29T09:00:00:Z","depth":"0","parameterNumber":2,"parameterNumberName":"U-component_of_CURRENTS"},"data":[0,0,0,0,0,0,0,0,0,0,0,0,0,0,0,0,0,0,0,0,0,0,0,0,0,0,0,0,0,0,0,0,0,0,0,0,0,0,0,0,0,0,0,0,0,0,0,0,0,0,0,0,0,0,0,0,0,0,0.3631,0.3632,0,0.3674,0.3674,0.3675,0.3666,0.3665,0.3665,0.3664,0.3654,0.3655,0.3655,0,0,0,0,0,0,0,0,0,0,0,0,0,0.3554,0.3555,0.3631,0.3632,0.3633,0.3674,0.3674,0.3675,0.3666,0.3665,0.3665,0.3664,0.3654,0.3654,0.3655,0,0,0,0,0,0,0,0,0,0,0,0,0,0.3588,0.3555,0.3631,0.3636,0.3637,0.3674,0.3674,0.3675,0.3666,0.3665,0.3665,0.3664,0.3654,0.3654,0.3655,0.367,0,0,0.3655,0.3655,0,0,0,0,0,0,0,0,0.3586,0.359,0.3634,0.3636,0.3637,0.3667,0.3644,0.3672,0.3666,0.3651,0.3664,0.3664,0.3657,0.3657,0.3662,0.3669,0.3669,0.3655,0.3656,0.3656,0.3656,0,0,0,0,0,0,0,0.3583,0.3588,0.3644,0.3636,0.3637,0.3641,0.3644,0.3649,0.3653,0.3652,0.3653,0.3664,0.3656,0.3662,0.3661,0.3668,0.3655,0.3656,0.3656,0.3656,0.3722,0.3723,0,0,0,0,0,0,0.3586,0.3586,0.3643,0.3646,0.3613,0.3643,0.3647,0.3655,0.3654,0.3655,0.3664,0.3663,0.3661,0.3661,0.3661,0.3707,0.3656,0.3656,0.3656,0.372,0.3722,0.3724,0,0,0,0,0,0,0.3584,0.359,0.3641,0.362,0.3627,0.3645,0.3655,0.3657,0.3667,0.3665,0.3663,0.3674,0.3661,0.3661,0.3677,0.3705,0.3656,0.3656,0.3718,0.3721,0.3723,0.3781,0,0,0,0,0,0,0.3581,0.3589,0.3597,0.362,0.3629,0.3671,0.3656,0.3658,0.3676,0.3675,0.3673,0.3671,0.366,0.3677,0.3677,0.3705,0.3656,0.3716,0.372,0.3722,0.3777,0.3785,0.3792,0,0,0,0,0,0.3578,0.3592,0.3597,0.3604,0.3638,0.3673,0.3677,0.3685,0.3678,0.369,0.369,0.3671,0.3697,0.3679,0.3679,0.3707,0.3715,0.3719,0.3722,0.3774,0.3783,0.3792,0,0,0,0,0,0,0.3559,0.3594,0.3599,0.3621,0.3649,0.3673,0.3687,0.3692,0.3703,0.3701,0.3688,0.3688,0.3717,0.3705,0.3685,0.3736,0.3704,0.3708,0.3744,0.3753,0.376,0.3779,0.3656,0,0,0,0,0,0.356,0.358,0.3614,0.3632,0.3648,0.3668,0.3683,0.3693,0.3708,0.3711,0.3709,0.3714,0.3733,0.3736,0.3746,0.3769,0.3789,0.3789,0.3796,0.3803,0.382,0.387,0.3884,0.3736,0.3736,0.3736,0,0,0.3555,0.358,0.3589,0.363,0.3649,0.3687,0.3675,0.3706,0.3736,0.3709,0.3738,0.3741,0.3747,0.3778,0.3789,0.3769,0.386,0.3807,0.3813,0.3827,0.3876,0.389,0.3903,0.3738,0.3738,0.3738,0,0,0.3568,0.3581,0.3609,0.364,0.3683,0.3702,0.3714,0.3744,0.3754,0.3785,0.3782,0.3806,0.3815,0.3836,0.3845,0.3902,0.3901,0.39,0.3948,0.3996,0.4009,0.402,0.4081,0.4097,0.3898,0.3898,0.3898,0,0.3563,0.3604,0.3621,0.3665,0.3694,0.3712,0.3753,0.3775,0.3805,0.3823,0.38,0.3855,0.385,0.3912,0.3929,0.392,0.3949,0.391,0.4006,0.4018,0.4029,0.4088,0.4105,0.3902,0.3901,0.3901,0.3901,0,0.3605,0.3641,0.3661,0.3721,0.3753,0.3791,0.383,0.3857,0.3866,0.3887,0.3939,0.3943,0.3978,0.398,0.3968,0.4048,0.4046,0.4014,0.3983,0.4047,0.4105,0.4122,0.3906,0.3905,0.3904,0.3903,0,0,0.3587,0.3673,0.3682,0.3718,0.3787,0.3815,0.3874,0.3931,0.3981,0.3995,0.4055,0.4082,0.4086,0.4099,0.4096,0.4129,0.4225,0.4103,0.4104,0.4163,0.4351,0.44,0.4423,0.4206,0.4209,0.4211,0.4367,0,0.3617,0.3698,0.3735,0.3808,0.3852,0.3892,0.3947,0.4,0.4041,0.4102,0.4119,0.4174,0.4132,0.4158,0.4189,0.4222,0.427,0.4188,0.428,0.4284,0.4319,0.4445,0.446,0.4604,0.4383,0.4386,0.4388,0,0.3652,0.3702,0.3773,0.3858,0.388,0.3922,0.4016,0.4073,0.4164,0.4199,0.4258,0.4276,0.4348,0.429,0.4392,0.4341,0.4359,0.4372,0.4378,0.4417,0.4366,0.4502,0.4643,0.4693,0.4414,0.4412,0.441,0,0.3631,0.3729,0.378,0.3811,0.3908,0.3942,0.3997,0.4095,0.4164,0.4273,0.4335,0.4406,0.4463,0.4492,0.4525,0.4467,0.4636,0.4554,0.4623,0.4626,0.4657,0.4659,0.4858,0.4636,0.4635,0.4635,0.4634,0,0.3648,0.3689,0.3772,0.38,0.3869,0.3938,0.4029,0.4101,0.4226,0.4312,0.4382,0.4475,0.4515,0.4604,0.4597,0.4698,0.4703,0.4681,0.4687,0.4679,0.4681,0.4735,0.4747,0.4641,0.4639,0.4638,0.4637,0,0.3615,0.3672,0.3733,0.3827,0.3859,0.3906,0.4042,0.4109,0.4241,0.4363,0.4404,0.4565,0.4694,0.4747,0.4833,0.482,0.4837,0.4906,0.4908,0.4913,0.4992,0.5006,0.4925,0.4746,0.5012,0.5015,0.5017,0,0.3604,0.3635,0.3732,0.376,0.3797,0.3884,0.3942,0.4093,0.4173,0.4408,0.4455,0.4655,0.4778,0.4977,0.5032,0.511,0.495,0.5131,0.5015,0.506,0.5079,0.4798,0.4627,0.5083,0.5086,0.5088,0.5089,0,0.357,0.3601,0.3638,0.3699,0.375,0.3827,0.3923,0.3991,0.4163,0.4294,0.4471,0.4611,0.49,0.5036,0.5195,0.5222,0.5029,0.5173,0.5223,0.5186,0.489,0.47,0.4919,0.5107,0.5105,0.5104,0.5103,0.5102,0.3519,0.3526,0.356,0.3611,0.3661,0.3699,0.3709,0.3846,0.3961,0.4135,0.4366,0.4609,0.5013,0.5274,0.5256,0.5414,0.5162,0.5362,0.5387,0.5102,0.4897,0.5173,0.5355,0.5354,0.5354,0.5354,0.5354,0,0.3421,0.343,0.3469,0.3478,0.3459,0.3548,0.3626,0.3627,0.3689,0.4053,0.423,0.4766,0.5066,0.5355,0.5712,0.5684,0.5306,0.5609,0.5263,0.5079,0.5403,0.5382,0.5575,0.5575,0.5575,0.5575,0.5575,0.5575,0.3358,0.3323,0.3339,0.3251,0.3257,0.3183,0.3184,0.3261,0.349,0.3856,0.4236,0.4572,0.5366,0.6095,0.6272,0.608,0.5623,0.5487,0.5286,0.5686,0.5662,0.564,0.5624,0.5865,0.5865,0.4746,0.474,0.4735]},{"header":{"parameterUnit":"m.s-1","parameterCategory":2,"la1":30.2991,"la2":30.254,"lo1":-89.0895,"lo2":-89.0444,"dy":0.0017,"dx":0.0017,"nx":28,"ny":28,"refTime":"2026-01-29T09:00:00:Z","depth":"0","parameterNumber":3,"parameterNumberName":"V-component_of_CURRENTS"},"data":[0,0,0,0,0,0,0,0,0,0,0,0,0,0,0,0,0,0,0,0,0,0,0,0,0,0,0,0,0,0,0,0,0,0,0,0,0,0,0,0,0,0,0,0,0,0,0,0,0,0,0,0,0,0,0,0,0,0,-0.0351,-0.0351,0,-0.0414,-0.0415,-0.0416,-0.0476,-0.0477,-0.0477,-0.0478,-0.0563,-0.0565,-0.0567,0,0,0,0,0,0,0,0,0,0,0,0,0,-0.036,-0.0359,-0.0351,-0.0351,-0.0352,-0.0414,-0.0415,-0.0416,-0.0476,-0.0477,-0.0478,-0.0478,-0.0563,-0.0565,-0.0567,0,0,0,0,0,0,0,0,0,0,0,0,0,-0.0385,-0.0359,-0.0351,-0.0387,-0.0391,-0.0414,-0.0415,-0.0416,-0.0476,-0.0477,-0.0478,-0.0479,-0.0562,-0.0565,-0.0567,-0.0568,0,0,-0.0575,-0.0577,0,0,0,0,0,0,0,0,-0.0384,-0.0385,-0.0381,-0.0385,-0.0389,-0.0436,-0.045,-0.0467,-0.0476,-0.0447,-0.0478,-0.0479,-0.052,-0.0526,-0.054,-0.0572,-0.0576,-0.0576,-0.0577,-0.0578,-0.0579,0,0,0,0,0,0,0,-0.0382,-0.0383,-0.0379,-0.0382,-0.0386,-0.0427,-0.0431,-0.0454,-0.0481,-0.0449,-0.0453,-0.0456,-0.0523,-0.0537,-0.0543,-0.0577,-0.0576,-0.0578,-0.058,-0.0581,-0.0614,-0.0613,0,0,0,0,0,0,-0.0363,-0.0381,-0.0377,-0.038,-0.0385,-0.0426,-0.0431,-0.0422,-0.048,-0.0489,-0.0455,-0.0458,-0.0533,-0.0539,-0.0546,-0.0534,-0.0578,-0.0581,-0.0582,-0.0615,-0.0614,-0.0613,0,0,0,0,0,0,-0.0363,-0.0362,-0.0374,-0.0381,-0.0385,-0.0424,-0.0415,-0.0423,-0.0434,-0.0484,-0.0494,-0.0457,-0.0533,-0.0542,-0.0559,-0.0538,-0.0582,-0.0585,-0.0616,-0.0615,-0.0614,-0.052,0,0,0,0,0,0,-0.0363,-0.0361,-0.0351,-0.0379,-0.0384,-0.037,-0.0414,-0.0424,-0.0433,-0.0438,-0.0488,-0.0498,-0.0535,-0.0554,-0.0561,-0.0543,-0.0587,-0.0617,-0.0615,-0.0614,-0.0524,-0.0516,-0.0509,0,0,0,0,0,-0.0363,-0.0333,-0.035,-0.0349,-0.0367,-0.0369,-0.0375,-0.0409,-0.0432,-0.0425,-0.0464,-0.0496,-0.0551,-0.0556,-0.0564,-0.0546,-0.0617,-0.0616,-0.0614,-0.0527,-0.0517,-0.0509,0,0,0,0,0,0,-0.0326,-0.0337,-0.0356,-0.0331,-0.0344,-0.0378,-0.0374,-0.0399,-0.0425,-0.0433,-0.0486,-0.0497,-0.0506,-0.0537,-0.0541,-0.0552,-0.0589,-0.0589,-0.052,-0.0512,-0.0504,-0.0479,-0.0589,0,0,0,0,0,-0.0313,-0.0298,-0.0319,-0.0299,-0.0303,-0.0339,-0.0346,-0.0367,-0.0393,-0.0406,-0.0441,-0.0479,-0.0506,-0.0517,-0.0547,-0.0548,-0.0587,-0.0543,-0.0535,-0.0528,-0.0514,-0.0561,-0.0556,-0.0608,-0.0608,-0.0608,0,0,-0.0294,-0.0298,-0.029,-0.0291,-0.0308,-0.0294,-0.0345,-0.0344,-0.0334,-0.041,-0.0409,-0.0454,-0.0501,-0.0507,-0.0513,-0.0529,-0.0534,-0.0526,-0.052,-0.051,-0.0559,-0.0554,-0.0549,-0.0607,-0.0607,-0.0607,0,0,-0.0239,-0.025,-0.022,-0.0225,-0.0238,-0.0257,-0.0251,-0.0279,-0.0294,-0.0302,-0.0354,-0.0384,-0.0421,-0.045,-0.0471,-0.0437,-0.0495,-0.0448,-0.0385,-0.0431,-0.0427,-0.0424,-0.0464,-0.0465,-0.0441,-0.0441,-0.0441,0,-0.0217,-0.0179,-0.0212,-0.0185,-0.0178,-0.0232,-0.0198,-0.0217,-0.0247,-0.025,-0.0287,-0.0348,-0.0393,-0.0398,-0.0392,-0.0418,-0.0454,-0.0414,-0.042,-0.0418,-0.0416,-0.0459,-0.0462,-0.0436,-0.0437,-0.0437,-0.0438,0,-0.0143,-0.0116,-0.0096,-0.0081,-0.0081,-0.0058,-0.0087,-0.0088,-0.0121,-0.0147,-0.0167,-0.0239,-0.0271,-0.0295,-0.0335,-0.0339,-0.0371,-0.0407,-0.044,-0.0405,-0.0453,-0.0457,-0.043,-0.0431,-0.0433,-0.0434,0,0,-0.0083,-0.0049,-0.0042,-0.0015,-0.0022,-0.0008,0.0009,0.0015,0.0039,-0.0024,-0.0008,-0.0079,-0.013,-0.0156,-0.0217,-0.0261,-0.029,-0.0321,-0.0326,-0.0354,-0.0387,-0.0418,-0.0427,-0.033,-0.033,-0.033,-0.0423,0,-0.0014,0.007,0.0058,0.0128,0.017,0.013,0.0161,0.0151,0.0125,0.0126,0.0034,0.002,-0.0072,-0.0088,-0.0147,-0.0251,-0.0298,-0.0261,-0.0422,-0.0426,-0.0453,-0.0432,-0.0453,-0.0539,-0.0428,-0.0429,-0.043,0,0.0064,0.0113,0.02,0.0252,0.0265,0.0292,0.0328,0.0348,0.0325,0.0301,0.0251,0.0175,0.0104,0.0016,-0.0147,-0.012,-0.0239,-0.0332,-0.0339,-0.0401,-0.0466,-0.0557,-0.0552,-0.0898,-0.0437,-0.0437,-0.0436,0,0.0138,0.021,0.0288,0.0304,0.0351,0.0381,0.0404,0.0407,0.0454,0.0413,0.0427,0.0309,0.0268,0.0098,-0.0104,-0.0125,-0.0289,-0.0345,-0.0486,-0.049,-0.0555,-0.0564,-0.0896,-0.0457,-0.0456,-0.0456,-0.0456,0,0.0226,0.0285,0.0333,0.0376,0.0485,0.047,0.0572,0.0574,0.06,0.0671,0.0527,0.0549,0.0286,0.0155,-0.0052,-0.0274,-0.0253,-0.0465,-0.0512,-0.0523,-0.0527,-0.087,-0.1093,-0.046,-0.0459,-0.0458,-0.0458,0,0.0303,0.0329,0.0425,0.0492,0.0528,0.0603,0.0709,0.079,0.0775,0.0859,0.0853,0.0739,0.0562,0.029,0.0021,-0.0184,-0.064,-0.0494,-0.0487,-0.0531,-0.0987,-0.1203,-0.1626,-0.1835,-0.0666,-0.0667,-0.0668,0,0.0351,0.0412,0.0524,0.0604,0.0642,0.0755,0.0858,0.0889,0.0981,0.0991,0.1052,0.09,0.0837,0.0419,0.0015,-0.0358,-0.0703,-0.0629,-0.0678,-0.1015,-0.129,-0.1473,-0.1631,-0.0733,-0.0735,-0.0736,-0.0737,0,0.0452,0.0486,0.0576,0.075,0.0867,0.1003,0.1137,0.1238,0.1278,0.1335,0.1386,0.1331,0.0914,0.0541,0.0005,-0.0287,-0.0954,-0.0665,-0.1027,-0.1381,-0.1591,-0.1811,-0.0675,-0.0748,-0.0747,-0.0746,-0.0746,-0.0745,0.0533,0.0622,0.075,0.0919,0.1061,0.1236,0.1368,0.1496,0.1651,0.175,0.1671,0.1654,0.1043,0.0316,-0.0151,-0.1018,-0.1069,-0.1274,-0.1507,-0.1657,-0.1881,-0.0761,-0.0879,-0.0878,-0.0878,-0.0878,-0.0877,0,0.0649,0.0755,0.0917,0.1116,0.1298,0.1336,0.1554,0.1683,0.1873,0.1981,0.2019,0.172,0.0947,0.0148,-0.0985,-0.1677,-0.2,-0.2111,-0.2399,-0.252,-0.1519,-0.154,-0.1791,-0.179,-0.179,-0.179,-0.1789,-0.1789,0.0715,0.0896,0.0985,0.1296,0.1433,0.1662,0.1788,0.1953,0.2089,0.2223,0.2233,0.2171,0.1526,-0.0635,-0.2132,-0.2503,-0.313,-0.3282,-0.3575,-0.2905,-0.2844,-0.2787,-0.2858,-0.338,-0.3383,-0.4486,-0.4497,-0.4505]}],[{"header":{"parameterUnit":"m.s-1","parameterCategory":2,"la1":30.2991,"la2":30.254,"lo1":-89.0895,"lo2":-89.0444,"dy":0.0017,"dx":0.0017,"nx":28,"ny":28,"refTime":"2026-01-29T09:00:00:Z","depth":"2","parameterNumber":2,"parameterNumberName":"U-component_of_CURRENTS"},"data":[0,0,0,0,0,0,0,0,0,0,0,0,0,0,0,0,0,0,0,0,0,0,0,0,0,0,0,0,0,0,0,0,0,0,0,0,0,0,0,0,0,0,0,0,0,0,0,0,0,0,0,0,0,0,0,0,0,0,0.3585,0.3585,0,0.3628,0.3628,0.3629,0.3621,0.3621,0.3621,0.362,0.3612,0.3613,0.3613,0,0,0,0,0,0,0,0,0,0,0,0,0,0.3511,0.3511,0.3585,0.3585,0.3586,0.3628,0.3628,0.3629,0.3622,0.3621,0.3621,0.362,0.3612,0.3613,0.3613,0,0,0,0,0,0,0,0,0,0,0,0,0,0.3544,0.3512,0.3584,0.359,0.3592,0.3628,0.3628,0.3629,0.3622,0.3621,0.362,0.362,0.3612,0.3613,0.3613,0.3627,0,0,0.3614,0.3614,0,0,0,0,0,0,0,0,0.3542,0.3546,0.3589,0.359,0.3592,0.3622,0.36,0.3627,0.3622,0.3606,0.362,0.3619,0.3614,0.3614,0.3619,0.3627,0.3626,0.3614,0.3614,0.3614,0.3614,0,0,0,0,0,0,0,0.3539,0.3544,0.3598,0.359,0.3592,0.3597,0.36,0.3605,0.3609,0.3608,0.3608,0.3619,0.3614,0.3619,0.3619,0.3626,0.3614,0.3614,0.3614,0.3614,0.3682,0.3684,0,0,0,0,0,0,0.3542,0.3542,0.3597,0.36,0.3569,0.3599,0.3602,0.361,0.361,0.3611,0.362,0.3619,0.3619,0.3618,0.3618,0.3666,0.3614,0.3614,0.3614,0.368,0.3682,0.3684,0,0,0,0,0,0,0.354,0.3546,0.3595,0.3575,0.3582,0.3601,0.3609,0.3611,0.3623,0.3621,0.362,0.363,0.3618,0.3618,0.3636,0.3664,0.3614,0.3615,0.3678,0.3681,0.3683,0.3741,0,0,0,0,0,0,0.3537,0.3545,0.3552,0.3575,0.3583,0.3625,0.361,0.3613,0.3632,0.3631,0.363,0.3628,0.3618,0.3636,0.3636,0.3664,0.3615,0.3676,0.368,0.3682,0.3737,0.3746,0.3752,0,0,0,0,0,0.3534,0.3548,0.3552,0.3559,0.3592,0.3627,0.3631,0.364,0.3633,0.3646,0.3647,0.3628,0.3655,0.3637,0.3637,0.3666,0.3675,0.3679,0.3682,0.3734,0.3744,0.3752,0,0,0,0,0,0,0.3516,0.355,0.3554,0.3576,0.3604,0.3627,0.3642,0.3648,0.3659,0.3658,0.3646,0.3645,0.3676,0.3664,0.3644,0.3696,0.3664,0.3668,0.3703,0.3712,0.372,0.3739,0.3615,0,0,0,0,0,0.3518,0.3537,0.357,0.3588,0.3603,0.3624,0.3639,0.3649,0.3664,0.3669,0.3667,0.3672,0.3692,0.3695,0.3706,0.3729,0.3748,0.375,0.3757,0.3763,0.3781,0.383,0.3844,0.3696,0.3696,0.3696,0,0,0.3514,0.3538,0.3546,0.3586,0.3605,0.3643,0.3631,0.3662,0.3692,0.3666,0.3696,0.37,0.3706,0.3737,0.3749,0.3729,0.382,0.3768,0.3773,0.3788,0.3835,0.385,0.3863,0.3699,0.3698,0.3698,0,0,0.3529,0.354,0.3567,0.3598,0.3641,0.3659,0.3672,0.3702,0.3712,0.3744,0.3741,0.3765,0.3776,0.3796,0.3806,0.3863,0.3862,0.3861,0.3909,0.3957,0.397,0.3981,0.4041,0.4057,0.386,0.386,0.386,0,0.3524,0.3564,0.358,0.3623,0.3652,0.367,0.371,0.3732,0.3763,0.3782,0.376,0.3815,0.3811,0.3873,0.389,0.3881,0.391,0.3871,0.3968,0.3979,0.3989,0.4048,0.4065,0.3863,0.3863,0.3862,0.3862,0,0.3567,0.3602,0.3623,0.3681,0.3712,0.375,0.3787,0.3816,0.3825,0.3846,0.3899,0.3903,0.3939,0.3941,0.393,0.4009,0.4007,0.3975,0.3943,0.4008,0.4065,0.4082,0.3868,0.3867,0.3866,0.3865,0,0,0.3553,0.3635,0.3645,0.3679,0.3746,0.3774,0.3832,0.3889,0.3939,0.3954,0.4014,0.4042,0.4046,0.406,0.4056,0.409,0.4186,0.4065,0.4065,0.4124,0.431,0.4356,0.4378,0.4167,0.417,0.4172,0.4325,0,0.3584,0.3663,0.3698,0.377,0.3813,0.3852,0.3906,0.3958,0.4,0.4061,0.4078,0.4133,0.4092,0.4119,0.4149,0.4182,0.423,0.4148,0.4239,0.4243,0.4275,0.4399,0.3929,0.403,0.4341,0.4344,0.4346,0,0.362,0.3669,0.3739,0.382,0.3842,0.3884,0.3976,0.4032,0.4123,0.4158,0.4216,0.4235,0.4307,0.425,0.4351,0.4301,0.4319,0.4331,0.4336,0.4373,0.4321,0.4014,0.4049,0.4374,0.4372,0.4369,0.4368,0,0.3602,0.3697,0.3748,0.3777,0.3871,0.3905,0.3958,0.4055,0.4123,0.4232,0.4294,0.4364,0.4421,0.445,0.4483,0.4425,0.4592,0.4511,0.4576,0.4579,0.4196,0.4162,0.4592,0.4592,0.4591,0.4591,0.4591,0,0.362,0.3661,0.3741,0.3768,0.3836,0.3902,0.3993,0.4063,0.4186,0.4272,0.4342,0.4434,0.4473,0.4561,0.4554,0.4652,0.4658,0.4634,0.4639,0.4208,0.4176,0.4471,0.4454,0.4597,0.4595,0.4594,0.4593,0,0.359,0.3645,0.3705,0.3796,0.3828,0.3873,0.4007,0.4073,0.4204,0.4325,0.4365,0.4523,0.465,0.4703,0.4787,0.4773,0.4833,0.4855,0.4373,0.4323,0.4764,0.4749,0.4951,0.4954,0.4957,0.4959,0.4961,0,0.358,0.361,0.3705,0.3732,0.3767,0.3853,0.391,0.4058,0.4137,0.4369,0.4416,0.4613,0.4713,0.4907,0.4846,0.4887,0.4962,0.4569,0.4388,0.4825,0.4809,0.479,0.4771,0.3884,0.3877,0.3871,0.3867,0,0.3547,0.3577,0.3613,0.3673,0.3722,0.3797,0.3891,0.3958,0.4128,0.4238,0.4412,0.453,0.4706,0.4555,0.4663,0.462,0.4524,0.4467,0.5021,0.3913,0.3844,0.3822,0.3832,0.3815,0.3821,0.3824,0.3827,0.3829,0.3496,0.3502,0.3535,0.3584,0.3633,0.367,0.3679,0.3747,0.3833,0.387,0.4168,0.4156,0.4254,0.4156,0.4099,0.4052,0.4357,0.4161,0.4165,0.4178,0.4076,0.402,0.4004,0.401,0.4015,0.402,0.4024,0,0.3356,0.3407,0.3444,0.3452,0.3398,0.3521,0.3596,0.3499,0.3449,0.3554,0.3604,0.3352,0.3321,0.3455,0.327,0.3386,0.3209,0.3315,0.2977,0.3033,0.3082,0.2909,0.2536,0.2532,0.2528,0.2524,0,0,0.3282,0.3229,0.3244,0.3149,0.3188,0.3061,0.3061,0.2952,0.294,0.28,0.2756,0.2962,0.3259,0.2747,0.2775,0.2616,0.2782,0.2531,0.3717,0.3365,0.3407,0.3575,0.3379,0,0,0,0,0]},{"header":{"parameterUnit":"m.s-1","parameterCategory":2,"la1":30.2991,"la2":30.254,"lo1":-89.0895,"lo2":-89.0444,"dy":0.0017,"dx":0.0017,"nx":28,"ny":28,"refTime":"2026-01-29T09:00:00:Z","depth":"2","parameterNumber":3,"parameterNumberName":"V-component_of_CURRENTS"},"data":[0,0,0,0,0,0,0,0,0,0,0,0,0,0,0,0,0,0,0,0,0,0,0,0,0,0,0,0,0,0,0,0,0,0,0,0,0,0,0,0,0,0,0,0,0,0,0,0,0,0,0,0,0,0,0,0,0,0,-0.0304,-0.0305,0,-0.0368,-0.0369,-0.037,-0.0431,-0.0431,-0.0432,-0.0432,-0.0518,-0.0519,-0.0521,0,0,0,0,0,0,0,0,0,0,0,0,0,-0.0314,-0.0313,-0.0304,-0.0305,-0.0305,-0.0368,-0.0369,-0.037,-0.0431,-0.0431,-0.0432,-0.0433,-0.0517,-0.0519,-0.0521,0,0,0,0,0,0,0,0,0,0,0,0,0,-0.0339,-0.0313,-0.0304,-0.0341,-0.0345,-0.0368,-0.0369,-0.037,-0.043,-0.0431,-0.0432,-0.0433,-0.0516,-0.0519,-0.0522,-0.0522,0,0,-0.053,-0.0531,0,0,0,0,0,0,0,0,-0.0338,-0.0339,-0.0335,-0.0339,-0.0343,-0.039,-0.0404,-0.0421,-0.043,-0.0401,-0.0432,-0.0433,-0.0475,-0.0481,-0.0495,-0.0526,-0.053,-0.053,-0.0532,-0.0533,-0.0534,0,0,0,0,0,0,0,-0.0336,-0.0337,-0.0332,-0.0336,-0.034,-0.0381,-0.0385,-0.0408,-0.0435,-0.0403,-0.0407,-0.041,-0.0477,-0.0492,-0.0497,-0.0531,-0.053,-0.0532,-0.0534,-0.0535,-0.0569,-0.0568,0,0,0,0,0,0,-0.0317,-0.0335,-0.033,-0.0334,-0.0339,-0.038,-0.0385,-0.0376,-0.0434,-0.0443,-0.0409,-0.0412,-0.0487,-0.0494,-0.05,-0.0489,-0.0533,-0.0535,-0.0537,-0.057,-0.0569,-0.0568,0,0,0,0,0,0,-0.0317,-0.0316,-0.0328,-0.0335,-0.0339,-0.0378,-0.0369,-0.0377,-0.0389,-0.0438,-0.0448,-0.0412,-0.0488,-0.0496,-0.0513,-0.0493,-0.0537,-0.0539,-0.057,-0.0569,-0.0568,-0.0476,0,0,0,0,0,0,-0.0317,-0.0315,-0.0305,-0.0333,-0.0338,-0.0324,-0.0368,-0.0378,-0.0388,-0.0393,-0.0443,-0.0452,-0.0489,-0.0509,-0.0516,-0.0498,-0.0541,-0.0571,-0.057,-0.0569,-0.048,-0.0472,-0.0465,0,0,0,0,0,-0.0317,-0.0288,-0.0304,-0.0303,-0.0321,-0.0323,-0.0329,-0.0363,-0.0387,-0.038,-0.0419,-0.0451,-0.0506,-0.051,-0.0519,-0.0501,-0.0572,-0.057,-0.0569,-0.0483,-0.0473,-0.0465,0,0,0,0,0,0,-0.0281,-0.0292,-0.031,-0.0285,-0.0299,-0.0332,-0.0329,-0.0354,-0.038,-0.0389,-0.0441,-0.0452,-0.0461,-0.0492,-0.0496,-0.0508,-0.0544,-0.0544,-0.0476,-0.0467,-0.046,-0.0435,-0.0543,0,0,0,0,0,-0.0268,-0.0253,-0.0273,-0.0254,-0.0257,-0.0294,-0.0301,-0.0322,-0.0348,-0.0362,-0.0397,-0.0435,-0.0461,-0.0473,-0.0502,-0.0503,-0.0543,-0.0499,-0.0491,-0.0484,-0.047,-0.0517,-0.0512,-0.0563,-0.0563,-0.0563,0,0,-0.0249,-0.0253,-0.0245,-0.0246,-0.0263,-0.0249,-0.03,-0.03,-0.029,-0.0365,-0.0365,-0.041,-0.0457,-0.0463,-0.0469,-0.0485,-0.0491,-0.0482,-0.0476,-0.0466,-0.0515,-0.051,-0.0506,-0.0562,-0.0562,-0.0562,0,0,-0.0196,-0.0206,-0.0177,-0.0181,-0.0194,-0.0213,-0.0207,-0.0236,-0.0251,-0.0259,-0.0311,-0.0341,-0.0379,-0.0407,-0.0427,-0.0394,-0.0452,-0.0406,-0.0344,-0.0389,-0.0385,-0.0382,-0.0423,-0.0424,-0.0399,-0.0398,-0.0398,0,-0.0175,-0.0137,-0.0168,-0.0142,-0.0135,-0.0189,-0.0155,-0.0174,-0.0205,-0.0207,-0.0244,-0.0306,-0.035,-0.0355,-0.0349,-0.0376,-0.0412,-0.0372,-0.0378,-0.0376,-0.0375,-0.0418,-0.0421,-0.0394,-0.0394,-0.0395,-0.0395,0,-0.0102,-0.0074,-0.0055,-0.0039,-0.0039,-0.0016,-0.0045,-0.0047,-0.008,-0.0105,-0.0126,-0.0198,-0.023,-0.0254,-0.0293,-0.0297,-0.033,-0.0366,-0.0398,-0.0364,-0.0412,-0.0416,-0.0387,-0.0389,-0.039,-0.0391,0,0,-0.0044,-0.0008,-0.0002,0.0026,0.0019,0.0033,0.005,0.0056,0.0079,0.0016,0.0032,-0.0039,-0.009,-0.0116,-0.0177,-0.0221,-0.0251,-0.0281,-0.0285,-0.0314,-0.0348,-0.0381,-0.039,-0.029,-0.029,-0.0291,-0.0385,0,0.0025,0.0109,0.0097,0.0168,0.0209,0.0171,0.0201,0.0191,0.0164,0.0164,0.0074,0.0058,-0.0033,-0.0049,-0.0108,-0.0211,-0.0258,-0.0221,-0.0382,-0.0387,-0.0414,-0.0394,-0.0363,-0.0445,-0.039,-0.0391,-0.0391,0,0.0101,0.015,0.0238,0.0291,0.0304,0.0331,0.0367,0.0386,0.0363,0.0338,0.0288,0.0212,0.0141,0.0054,-0.0109,-0.0082,-0.0201,-0.0294,-0.0301,-0.0363,-0.0427,-0.0472,-0.0456,-0.04,-0.0399,-0.0398,-0.0398,0,0.0173,0.0247,0.0325,0.0341,0.0389,0.0418,0.0442,0.0444,0.049,0.0449,0.0462,0.0344,0.0302,0.0133,-0.0068,-0.0088,-0.0253,-0.0308,-0.0449,-0.0453,-0.0473,-0.0478,-0.042,-0.042,-0.0419,-0.0419,-0.0419,0,0.026,0.032,0.0368,0.0412,0.0521,0.0506,0.0608,0.061,0.0634,0.0704,0.0561,0.0581,0.032,0.0189,-0.0017,-0.0239,-0.0218,-0.043,-0.0476,-0.0441,-0.0442,-0.0441,-0.0442,-0.0423,-0.0422,-0.0421,-0.0421,0,0.0335,0.0362,0.0459,0.0526,0.0563,0.0638,0.0743,0.0823,0.0808,0.089,0.0884,0.0768,0.059,0.032,0.0052,-0.0151,-0.0376,-0.0461,-0.0401,-0.0439,-0.0561,-0.0557,-0.063,-0.0632,-0.0633,-0.0635,-0.0636,0,0.0383,0.0445,0.0557,0.0637,0.0675,0.0788,0.089,0.0921,0.1012,0.102,0.1079,0.0925,0.0855,0.0437,0.0048,-0.0321,-0.0372,-0.0543,-0.0583,-0.0543,-0.0581,-0.0574,-0.0568,-0.0577,-0.0577,-0.0578,-0.0578,0,0.0484,0.0517,0.0607,0.0781,0.0897,0.1034,0.1166,0.1266,0.1305,0.1353,0.14,0.1337,0.0933,0.056,0.003,-0.0221,-0.0489,-0.0564,-0.0533,-0.0525,-0.05,-0.0535,-0.0529,-0.0582,-0.0581,-0.0581,-0.0581,-0.0581,0.0564,0.0652,0.0781,0.0948,0.109,0.1263,0.1394,0.1498,0.1641,0.1693,0.1629,0.1512,0.1081,0.0405,-0.003,-0.0503,-0.0489,-0.0668,-0.0664,-0.066,-0.0634,-0.0612,-0.071,-0.0711,-0.0711,-0.0711,-0.0711,0,0.0691,0.0784,0.0946,0.1144,0.1321,0.1362,0.1578,0.1681,0.1831,0.1838,0.1825,0.1428,0.0965,0.0479,-0.0212,-0.0622,-0.0647,-0.0758,-0.07,-0.0693,-0.0688,-0.0661,-0.0747,-0.0748,-0.0749,-0.075,0,0,0.0761,0.0944,0.1032,0.1325,0.1453,0.1672,0.1797,0.1911,0.196,0.1984,0.1889,0.1671,0.1102,0.059,0.0032,-0.0352,-0.0426,-0.0432,-0.0362,-0.022,-0.021,-0.06,-0.0547,0,0,0,0,0]}],[{"header":{"parameterUnit":"m.s-1","parameterCategory":2,"la1":30.2991,"la2":30.254,"lo1":-89.0895,"lo2":-89.0444,"dy":0.0017,"dx":0.0017,"nx":28,"ny":28,"refTime":"2026-01-29T09:00:00:Z","depth":"4","parameterNumber":2,"parameterNumberName":"U-component_of_CURRENTS"},"data":[0,0,0,0,0,0,0,0,0,0,0,0,0,0,0,0,0,0,0,0,0,0,0,0,0,0,0,0,0,0,0,0,0,0,0,0,0,0,0,0,0,0,0,0,0,0,0,0,0,0,0,0,0,0,0,0,0,0,0.1898,0.1899,0,0.2023,0.2024,0.2025,0.2107,0.2108,0.2108,0.2109,0.2225,0.2228,0.223,0,0,0,0,0,0,0,0,0,0,0,0,0,0.1706,0.1709,0.1897,0.1899,0.1901,0.2023,0.2024,0.2025,0.2107,0.2108,0.2109,0.2109,0.2225,0.2227,0.223,0,0,0,0,0,0,0,0,0,0,0,0,0,0.1803,0.171,0.1897,0.1959,0.1966,0.2022,0.2024,0.2026,0.2106,0.2108,0.2109,0.211,0.2224,0.2227,0.2231,0.2228,0,0,0.2241,0.2243,0,0,0,0,0,0,0,0,0.1798,0.181,0.1948,0.1954,0.1962,0.2053,0.2,0.2094,0.2106,0.205,0.2109,0.211,0.2168,0.2176,0.2193,0.2234,0.2239,0.2242,0.2244,0.2245,0.2246,0,0,0,0,0,0,0,0.1791,0.1805,0.1944,0.195,0.1959,0.1972,0.1987,0.2017,0.2098,0.2055,0.2062,0.208,0.2172,0.2189,0.2196,0.2241,0.2242,0.2245,0.2247,0.2248,0.2424,0.2427,0,0,0,0,0,0,0.1782,0.1799,0.194,0.1948,0.1885,0.1975,0.1992,0.202,0.2098,0.2112,0.2079,0.2083,0.2183,0.2192,0.2201,0.2329,0.2245,0.2249,0.2251,0.2422,0.2425,0.2428,0,0,0,0,0,0,0.1778,0.1794,0.1935,0.1878,0.1897,0.1978,0.2009,0.2022,0.2085,0.2117,0.2131,0.2134,0.2184,0.2196,0.2275,0.2329,0.225,0.2254,0.2419,0.2423,0.2426,0.2504,0,0,0,0,0,0,0.1772,0.1791,0.1827,0.1878,0.19,0.1997,0.2008,0.2024,0.2094,0.2102,0.2168,0.2177,0.2186,0.227,0.2279,0.2333,0.2256,0.2416,0.2421,0.2425,0.2498,0.251,0.252,0,0,0,0,0,0.1764,0.1802,0.1828,0.1846,0.194,0.1999,0.2013,0.207,0.2095,0.213,0.2183,0.2178,0.2307,0.2275,0.2285,0.2341,0.2413,0.2419,0.2425,0.2493,0.2508,0.252,0,0,0,0,0,0,0.1739,0.1815,0.1845,0.1906,0.1962,0.2015,0.2061,0.2094,0.2162,0.2185,0.2209,0.2223,0.2313,0.2316,0.2281,0.2407,0.236,0.2368,0.2409,0.2422,0.2433,0.2437,0.2259,0,0,0,0,0,0.1748,0.1802,0.1865,0.192,0.1952,0.2014,0.2053,0.2093,0.2151,0.2185,0.2232,0.2285,0.2336,0.2372,0.2413,0.2478,0.2487,0.2522,0.2533,0.2542,0.2553,0.261,0.2627,0.2447,0.2447,0.2447,0,0,0.1754,0.1805,0.1837,0.192,0.1971,0.2026,0.2042,0.2116,0.2174,0.2184,0.229,0.2328,0.2363,0.2444,0.2484,0.2459,0.2601,0.2549,0.2557,0.2563,0.2618,0.2635,0.265,0.2451,0.245,0.2449,0,0,0.1777,0.1841,0.1888,0.194,0.2027,0.2065,0.2095,0.2175,0.223,0.232,0.2349,0.2422,0.2499,0.2539,0.2564,0.2659,0.2657,0.2679,0.274,0.2795,0.281,0.2823,0.2863,0.288,0.2684,0.2684,0.2684,0,0.1783,0.1853,0.191,0.1966,0.202,0.2087,0.2146,0.2205,0.2305,0.2358,0.2368,0.2514,0.2543,0.264,0.2679,0.2685,0.2712,0.2684,0.2809,0.2822,0.2834,0.2872,0.2889,0.2689,0.2688,0.2688,0.2687,0,0.1828,0.1899,0.1935,0.203,0.2091,0.2158,0.224,0.2317,0.2388,0.2447,0.2575,0.2624,0.2711,0.2734,0.2738,0.2849,0.284,0.2815,0.277,0.2857,0.2891,0.2907,0.2695,0.2693,0.2692,0.2691,0,0,0.1799,0.1938,0.1956,0.2014,0.2136,0.2186,0.2295,0.2404,0.2491,0.2586,0.2695,0.2789,0.2831,0.2863,0.2887,0.2936,0.3045,0.2923,0.2923,0.2954,0.3173,0.2981,0.298,0.3048,0.3051,0.3054,0.3164,0,0.1823,0.1928,0.1999,0.2111,0.2172,0.2272,0.2366,0.2477,0.2578,0.2698,0.2774,0.2888,0.2876,0.294,0.2989,0.3039,0.3091,0.3017,0.3092,0.3094,0.2906,0.2993,0.3064,0.3176,0.3179,0.3182,0.3184,0,0.1837,0.1913,0.202,0.2165,0.2204,0.2283,0.2452,0.2551,0.2718,0.2802,0.2921,0.2988,0.3107,0.307,0.3198,0.3158,0.3181,0.3197,0.3201,0.3004,0.2931,0.3072,0.3212,0.321,0.3208,0.3206,0.3204,0,0.1777,0.1926,0.2015,0.2066,0.2234,0.2314,0.2419,0.2589,0.2698,0.2886,0.2983,0.3111,0.3208,0.3259,0.331,0.3276,0.3424,0.3371,0.3217,0.3204,0.3307,0.3292,0.3453,0.3453,0.3453,0.3452,0.3452,0,0.1759,0.1835,0.2002,0.205,0.2173,0.2306,0.246,0.258,0.2772,0.2896,0.3044,0.314,0.3266,0.3358,0.3366,0.3345,0.3475,0.3245,0.3224,0.3338,0.3325,0.3319,0.3302,0.3456,0.3456,0.3455,0.3454,0,0.1679,0.1789,0.1898,0.2082,0.2148,0.2242,0.2474,0.258,0.2778,0.2945,0.3016,0.3213,0.3318,0.3409,0.3503,0.3407,0.3408,0.3367,0.3507,0.349,0.3137,0.3123,0.3195,0.3189,0.3184,0.318,0.3177,0,0.1644,0.1694,0.1895,0.1967,0.2059,0.2223,0.2334,0.2558,0.2667,0.295,0.3004,0.3198,0.3295,0.3277,0.3378,0.339,0.3345,0.3329,0.3202,0.3139,0.3114,0.3108,0.3101,0.3169,0.3168,0.3166,0.3165,0,0.1571,0.1658,0.1746,0.189,0.2015,0.2148,0.232,0.2382,0.2632,0.2831,0.292,0.2983,0.3098,0.3145,0.3195,0.3189,0.3324,0.3277,0.3285,0.3165,0.3109,0.3087,0.3086,0.3148,0.3151,0.3152,0.3153,0,0.1514,0.1553,0.1677,0.1793,0.1939,0.2026,0.2137,0.226,0.239,0.268,0.2696,0.2888,0.3058,0.3044,0.3083,0.3074,0.301,0.2895,0.2921,0.2941,0.2805,0.2694,0.2603,0,0,0,0,0,0.1444,0.1477,0.1573,0.1689,0.1827,0.1915,0.2107,0.222,0.2444,0.2438,0.2561,0.2644,0.271,0.2808,0.2745,0.2976,0.3028,0.2891,0.291,0.3055,0.3074,0.2936,0,0,0,0,0,0,0.1397,0.1474,0.152,0.1577,0.1638,0.1774,0.1887,0.2041,0.2047,0.2272,0.2315,0.2484,0.2581,0.271,0.2691,0.2722,0.268,0.3013,0.3006,0.3044,0.3061,0.3077,0.2942,0,0,0,0,0]},{"header":{"parameterUnit":"m.s-1","parameterCategory":2,"la1":30.2991,"la2":30.254,"lo1":-89.0895,"lo2":-89.0444,"dy":0.0017,"dx":0.0017,"nx":28,"ny":28,"refTime":"2026-01-29T09:00:00:Z","depth":"4","parameterNumber":3,"parameterNumberName":"V-component_of_CURRENTS"},"data":[0,0,0,0,0,0,0,0,0,0,0,0,0,0,0,0,0,0,0,0,0,0,0,0,0,0,0,0,0,0,0,0,0,0,0,0,0,0,0,0,0,0,0,0,0,0,0,0,0,0,0,0,0,0,0,0,0,0,0.0251,0.025,0,0.0178,0.0177,0.0176,0.0131,0.0131,0.0131,0.013,0.0055,0.0053,0.0051,0,0,0,0,0,0,0,0,0,0,0,0,0,0.0317,0.0316,0.0251,0.025,0.0249,0.0178,0.0177,0.0176,0.0131,0.0131,0.013,0.013,0.0056,0.0053,0.0051,0,0,0,0,0,0,0,0,0,0,0,0,0,0.027,0.0316,0.0251,0.0219,0.0215,0.0178,0.0177,0.0175,0.0131,0.0131,0.013,0.013,0.0056,0.0054,0.0051,0.0039,0,0,0.0042,0.0041,0,0,0,0,0,0,0,0,0.0273,0.0267,0.0225,0.0221,0.0217,0.0164,0.0172,0.013,0.0131,0.0162,0.013,0.013,0.0092,0.0086,0.0072,0.0036,0.0033,0.0042,0.0041,0.0039,0.0039,0,0,0,0,0,0,0,0.0276,0.027,0.0222,0.0224,0.0219,0.0195,0.0189,0.0164,0.0129,0.016,0.0156,0.0149,0.0089,0.0075,0.007,0.0031,0.0042,0.004,0.0038,0.0037,-0.0029,-0.0029,0,0,0,0,0,0,0.0288,0.0273,0.0224,0.0219,0.0245,0.0195,0.0187,0.0181,0.0129,0.0121,0.0149,0.0147,0.008,0.0073,0.0067,0.0055,0.0039,0.0037,0.0035,-0.0029,-0.0029,-0.0029,0,0,0,0,0,0,0.029,0.0284,0.0227,0.0245,0.0236,0.0194,0.0187,0.0179,0.0166,0.0122,0.0113,0.0144,0.0079,0.0071,0.0047,0.0052,0.0036,0.0033,-0.0029,-0.0029,-0.0029,0.0028,0,0,0,0,0,0,0.0292,0.0285,0.0287,0.0246,0.0236,0.0214,0.0187,0.0178,0.0162,0.0158,0.0114,0.0107,0.0078,0.0051,0.0044,0.0048,0.0031,-0.0029,-0.0029,-0.0029,0.0026,0.003,0.0033,0,0,0,0,0,0.0295,0.0302,0.0288,0.0282,0.0239,0.0214,0.0207,0.0176,0.0162,0.0161,0.0128,0.0108,0.0045,0.0049,0.0041,0.0044,-0.0029,-0.0029,-0.0029,0.0025,0.0029,0.0033,0,0,0,0,0,0,0.0332,0.0297,0.0281,0.0277,0.0251,0.0207,0.0205,0.0181,0.0154,0.0151,0.0108,0.0099,0.0078,0.0052,0.0058,0.0022,0.0004,0.0002,0.0048,0.0052,0.0055,0.0075,0.0029,0,0,0,0,0,0.0341,0.0338,0.0298,0.0297,0.0287,0.0246,0.0233,0.0212,0.018,0.0168,0.0135,0.01,0.007,0.0055,0.0025,0.0009,-0.0027,0.0004,0.0007,0.001,0.002,-0.0035,-0.0035,-0.003,-0.003,-0.003,0,0,0.0356,0.0336,0.0334,0.0305,0.0283,0.0278,0.0238,0.0224,0.022,0.0165,0.0151,0.0112,0.0068,0.0047,0.0036,0.0027,-0.0012,0.001,0.0013,0.0021,-0.0035,-0.0036,-0.0036,-0.003,-0.003,-0.003,0,0,0.0389,0.0367,0.0376,0.0359,0.0331,0.0305,0.0304,0.0263,0.0245,0.0224,0.0182,0.0147,0.0104,0.0071,0.0049,0.0053,0.0008,0.0042,0.0076,0.0023,0.0022,0.0021,-0.0027,-0.0033,0.0044,0.0044,0.0044,0,0.041,0.0414,0.0376,0.0382,0.0376,0.0323,0.0334,0.0307,0.0263,0.0252,0.023,0.0154,0.0116,0.0086,0.0085,0.0062,0.0025,0.0067,0.0028,0.0027,0.0025,-0.0025,-0.0032,0.0047,0.0047,0.0046,0.0046,0,0.0447,0.0452,0.0458,0.0447,0.0434,0.0436,0.0395,0.038,0.0349,0.0316,0.0277,0.0214,0.0171,0.0147,0.0118,0.0085,0.0062,0.0039,0.0022,0.0028,-0.0025,-0.0034,0.0051,0.005,0.0049,0.0048,0,0,0.0491,0.0487,0.0491,0.0503,0.0472,0.0468,0.046,0.0437,0.0436,0.0376,0.0364,0.0294,0.0251,0.0223,0.0171,0.0121,0.0069,0.0081,0.0077,0.0041,-0.0048,-0.006,-0.0072,0.0039,0.0038,0.0037,-0.008,0,0.0535,0.057,0.0549,0.0581,0.0595,0.0552,0.0553,0.0523,0.0482,0.0455,0.0375,0.0342,0.0282,0.0261,0.02,0.0104,0.005,0.0103,-0.0054,-0.0058,-0.0064,-0.008,0.0034,-0.0086,-0.0088,-0.009,-0.0091,0,0.0578,0.0597,0.0643,0.0657,0.0659,0.0668,0.0659,0.0654,0.0598,0.0563,0.0502,0.0435,0.0354,0.0302,0.0138,0.0175,0.0074,-0.0007,-0.0014,-0.0049,-0.0087,-0.0095,-0.0107,-0.0105,-0.0104,-0.0103,-0.0102,0,0.0633,0.0662,0.0706,0.0711,0.0716,0.073,0.0729,0.0692,0.0698,0.0633,0.0617,0.0502,0.0447,0.0307,0.0136,0.0136,-0.0049,-0.0073,-0.0181,-0.0183,-0.0161,-0.0159,-0.0186,-0.0186,-0.0186,-0.0185,-0.0185,0,0.0682,0.0719,0.0742,0.0765,0.0826,0.0799,0.0845,0.082,0.0793,0.0798,0.0684,0.0645,0.0446,0.0313,0.0156,-0.0038,-0.0038,-0.0176,-0.0215,-0.0135,-0.0129,-0.0168,-0.0164,-0.019,-0.0189,-0.0188,-0.0187,0,0.0734,0.0747,0.0806,0.0835,0.0857,0.0899,0.0937,0.0959,0.0919,0.0917,0.0901,0.075,0.0566,0.0362,0.0123,-0.0005,-0.0192,-0.026,-0.0155,-0.0185,-0.0297,-0.0289,-0.0392,-0.0393,-0.0394,-0.0395,-0.0396,0,0.076,0.08,0.0872,0.0914,0.0934,0.0996,0.1041,0.1031,0.1043,0.0974,0.0968,0.0801,0.0675,0.0335,0.0111,-0.0191,-0.0235,-0.0327,-0.0318,-0.0291,-0.0318,-0.0308,-0.0299,-0.0398,-0.0399,-0.0399,-0.0399,0,0.0811,0.0844,0.0891,0.0989,0.105,0.1118,0.1165,0.1183,0.1157,0.1135,0.1013,0.082,0.0607,0.0331,0.0096,-0.0121,-0.0264,-0.034,-0.0339,-0.0332,-0.03,-0.0324,-0.0313,-0.0403,-0.0403,-0.0402,-0.0402,0,0.0851,0.0894,0.0963,0.1043,0.1131,0.1186,0.1215,0.1207,0.1215,0.1125,0.1084,0.0841,0.0701,0.0366,0.0149,-0.0066,-0.0125,-0.0188,-0.0196,-0.0194,-0.0106,-0.0035,-0.009,0,0,0,0,0,0.0878,0.0922,0.1003,0.108,0.1169,0.1217,0.127,0.1279,0.1262,0.119,0.1133,0.0928,0.0575,0.0419,0.0201,0.012,-0.0161,-0.0143,-0.0236,-0.0427,-0.0422,-0.0354,0,0,0,0,0,0,0.0889,0.097,0.1002,0.1097,0.1155,0.1247,0.1283,0.1273,0.1219,0.117,0.0988,0.0884,0.0546,0.0708,0.0202,0.0134,0.0045,-0.0308,-0.0312,-0.043,-0.0425,-0.0421,-0.0349,0,0,0,0,0]}]]